Theta_e
304 312 309 304 306 304 304 304 303 302 301 303 305 305 304 302 301 299 299 301 299 299 301 302 300 298 298 296 296 294 296 297 295 294 292 289 289 289 287 285 284 284 284 283 283 283 283 283 283 283 283 283 283 283 283 283 283 282 282 281 281 280 279 279 279 279 278 278 278 278 278 278 278 278 278 278 278 278 278 278 278 278 278 279 280 280
306 309 304 301 303 301 303 304 302 302 303 304 305 303 302 300 299 298 298 300 298 298 301 300 298 297 296 296 293 292 295 295 292 292 292 289 289 288 286 285 284 284 284 283 283 283 283 283 283 283 283 284 284 283 283 283 282 282 281 281 280 279 279 279 278 278 278 278 278 278 278 278 278 277 277 277 277 277 277 277 277 278 278 279 279 279
312 305 300 299 300 302 304 303 302 303 303 304 303 302 301 299 298 299 300 300 297 297 298 298 297 297 296 295 292 291 292 291 289 290 291 289 289 287 285 284 284 284 284 283 283 283 283 283 283 283 284 284 284 283 283 282 282 282 281 280 279 279 279 278 278 278 278 278 277 277 277 277 277 277 277 277 276 276 276 276 276 277 277 277 278 278
311 303 300 300 301 304 305 301 301 302 302 302 300 300 302 300 297 299 301 300 297 297 298 298 297 297 297 295 293 291 290 289 288 289 289 288 287 285 284 284 284 284 284 284 283 283 283 283 283 284 284 284 284 283 283 282 282 281 281 280 279 279 279 278 278 278 278 277 277 277 277 277 276 276 276 276 276 276 276 276 276 276 276 276 277 277
306 301 299 300 302 303 301 301 301 301 302 301 300 300 301 299 297 298 298 297 297 297 296 297 298 298 298 299 296 291 289 287 286 286 285 285 285 284 284 284 284 284 285 284 284 284 284 284 284 284 285 284 284 284 283 282 282 281 280 279 279 279 278 278 278 278 277 277 277 277 276 276 276 276 276 276 276 275 275 275 275 275 276 276 277 277
306 300 297 300 301 301 301 301 299 298 300 301 301 300 298 298 298 297 296 296 298 298 296 296 299 300 297 298 296 290 287 286 285 284 284 284 284 284 284 284 284 285 285 284 284 285 285 284 285 285 285 284 284 284 283 282 282 281 280 279 279 279 278 278 278 278 277 277 277 276 276 276 276 276 276 276 275 275 275 275 275 275 275 276 276 276
302 300 299 300 301 304 304 301 297 297 300 302 301 298 297 297 297 297 297 297 299 299 296 295 298 300 297 296 296 291 287 285 284 284 283 283 283 283 284 284 285 285 285 285 285 285 285 285 285 285 285 284 284 284 283 282 281 281 280 279 279 279 278 278 278 278 277 277 277 276 276 276 276 276 275 275 275 275 274 274 274 274 275 275 275 275
301 302 303 303 304 307 304 300 297 297 299 302 300 297 297 298 297 298 297 296 298 296 295 296 296 298 299 297 296 292 288 285 284 284 283 283 283 284 284 284 284 285 285 285 285 286 285 285 285 284 284 284 284 284 283 282 282 281 280 279 279 278 278 278 278 277 277 277 276 276 276 276 276 275 275 275 275 274 274 274 274 274 274 274 274 274
300 302 302 303 305 305 301 299 298 297 298 301 300 296 297 297 296 296 296 297 296 296 297 297 294 297 300 297 296 295 292 288 285 284 284 284 284 284 285 285 285 285 286 285 285 286 285 285 285 284 284 284 284 284 283 283 282 281 280 279 279 278 278 278 278 277 277 276 276 276 275 275 275 275 275 274 274 274 274 274 274 273 273 274 274 274
298 300 300 300 303 302 302 301 299 297 298 300 298 297 297 297 296 296 297 298 297 298 301 298 295 297 298 296 295 294 293 290 287 285 285 285 285 285 285 285 286 286 286 286 285 285 285 285 285 284 284 284 284 283 283 283 282 281 280 279 279 278 278 278 278 277 277 276 276 275 275 275 275 274 274 274 274 274 273 273 273 273 273 273 274 274
297 299 299 300 301 300 300 302 300 297 298 299 298 297 297 298 299 298 298 300 300 301 302 299 296 296 296 295 291 290 290 289 287 285 285 285 285 285 285 285 286 286 286 286 286 285 285 285 285 284 284 284 283 283 283 282 282 281 280 279 279 278 278 278 277 277 276 276 276 275 275 274 274 274 274 274 273 273 273 273 272 272 272 273 273 273
300 301 300 299 301 299 298 300 299 297 299 299 297 297 297 297 299 301 302 303 303 300 298 298 296 295 297 294 288 285 286 287 287 285 285 285 285 285 286 286 286 286 286 286 285 285 285 285 285 284 284 283 283 283 282 282 281 280 279 279 278 278 278 278 277 277 276 276 275 275 274 274 274 274 273 273 273 273 272 272 272 272 272 272 272 272
304 301 297 297 299 297 297 299 299 299 299 297 297 297 297 297 298 299 300 301 302 300 297 296 296 295 296 293 286 284 285 285 286 285 285 285 285 286 286 286 286 286 286 285 285 285 285 284 284 283 283 283 282 282 282 281 280 279 279 278 278 278 278 277 277 276 276 275 275 275 274 274 274 273 273 273 272 272 272 272 272 271 272 272 271 272
306 304 299 298 298 297 298 298 298 300 298 297 297 297 297 297 297 298 297 297 300 299 297 296 295 296 297 292 286 284 284 285 285 286 285 285 285 286 286 286 286 285 285 285 285 284 284 283 283 282 282 282 282 281 280 280 279 279 278 278 278 278 277 277 277 276 276 275 275 274 274 273 273 273 272 272 272 272 272 271 271 271 271 271 271 272
304 306 302 299 298 299 299 297 297 298 298 297 296 297 298 297 296 298 298 298 297 296 297 297 296 297 297 291 286 284 284 285 286 286 286 286 286 286 286 286 285 285 285 284 284 283 283 282 282 281 281 281 280 280 279 279 279 278 278 278 278 277 277 277 276 276 275 275 274 274 273 273 272 272 272 272 271 271 271 270 270 271 271 271 271 272
301 303 301 298 296 298 299 297 296 297 297 297 295 297 299 297 296 298 297 297 296 295 297 299 299 297 293 288 285 285 285 286 287 287 287 287 286 286 285 285 284 284 284 283 283 282 282 281 280 280 280 280 279 279 279 279 279 279 278 278 277 277 277 277 276 275 275 274 273 273 272 272 272 272 271 271 271 270 270 270 271 271 271 271 272 272
301 304 302 298 297 297 297 297 297 297 298 298 296 297 296 294 296 298 296 295 296 296 296 298 297 295 292 289 286 286 288 288 287 287 287 286 286 285 285 284 284 283 282 282 282 281 280 280 280 280 279 279 279 279 279 279 279 278 278 277 277 276 276 276 275 274 273 273 272 272 272 271 271 271 271 270 270 270 270 271 271 271 271 271 271 271
299 303 302 298 299 298 294 296 298 296 297 298 298 296 294 294 296 297 295 295 295 296 296 296 295 295 295 292 288 287 289 288 287 287 286 286 285 285 284 283 282 282 282 281 280 280 280 280 279 279 279 279 279 279 279 279 278 278 277 276 276 276 276 274 273 273 272 271 271 271 271 271 270 270 270 270 270 270 270 271 271 270 270 270 271 271
297 303 302 296 298 298 294 296 299 297 296 296 297 296 295 296 297 296 295 295 295 295 295 295 295 295 295 293 290 289 288 287 287 286 286 285 284 283 283 282 282 281 281 280 280 280 279 278 278 278 278 278 277 278 278 278 277 276 276 276 276 275 274 272 272 271 271 271 270 270 270 270 270 269 269 269 269 270 270 270 270 270 270 270 270 270
297 301 304 297 295 297 298 298 298 298 297 296 297 297 296 296 295 294 293 294 295 295 294 295 294 294 293 291 290 289 287 286 286 285 285 284 283 282 282 281 281 280 280 279 279 278 277 276 276 277 277 277 277 277 277 276 276 275 275 275 274 273 272 271 271 270 270 270 269 269 269 269 269 269 269 269 269 270 270 269 269 269 270 270 270 270
297 299 302 300 297 299 301 298 296 297 297 297 298 297 296 296 295 293 293 294 295 294 293 294 293 293 291 289 289 288 286 286 285 284 284 283 282 282 281 280 280 279 279 278 277 276 276 275 275 276 276 276 276 276 275 275 275 274 274 273 272 271 271 270 270 269 269 269 269 268 268 268 268 268 268 269 269 269 269 269 269 269 269 269 269 270
298 299 300 300 299 300 300 296 294 295 295 297 297 295 294 294 293 293 293 293 294 293 292 291 291 292 291 289 288 287 286 285 285 284 283 282 281 281 279 278 279 279 278 277 276 275 275 274 275 276 276 275 275 274 274 274 273 272 272 271 271 270 269 269 269 268 268 268 268 268 268 268 268 268 268 268 268 269 269 269 269 268 268 268 268 268
298 298 298 300 299 298 297 295 294 295 295 296 295 293 294 293 293 295 294 293 292 291 291 291 292 292 290 288 288 287 286 285 284 283 282 282 281 280 278 278 279 279 277 276 275 274 274 274 275 275 274 274 273 273 273 272 271 271 270 270 269 269 268 268 268 267 267 267 267 268 268 268 267 267 267 268 268 268 268 267 267 267 267 267 267 267
296 297 297 300 300 297 296 294 293 293 294 296 294 290 291 291 291 292 292 290 290 290 290 290 291 291 290 289 289 287 286 285 284 283 282 281 280 278 277 278 279 278 276 275 274 274 274 275 275 274 273 273 272 272 271 271 271 270 269 269 268 268 267 267 267 267 267 267 268 268 268 267 267 267 267 267 268 267 266 266 266 266 266 266 266 266
296 298 299 300 300 299 298 296 294 295 295 296 293 289 289 289 289 290 289 288 289 290 290 290 291 291 290 290 289 286 285 284 283 282 281 280 279 277 277 278 278 276 275 274 273 274 274 274 274 273 272 271 271 271 271 270 270 269 268 268 267 267 266 266 266 266 267 267 267 267 267 266 266 267 267 267 266 266 265 265 265 265 265 265 266 266
296 297 300 302 301 300 301 299 298 297 295 294 293 290 289 288 287 289 289 289 290 290 289 289 290 290 289 289 288 286 285 283 282 281 281 280 278 277 277 277 277 275 274 273 273 273 274 273 273 272 271 270 270 269 270 269 269 268 267 267 266 266 266 265 266 266 267 267 266 266 266 266 266 266 266 266 265 265 264 264 264 264 265 265 265 266
297 297 299 303 301 299 299 298 296 296 295 294 293 290 289 288 286 288 290 290 290 289 289 289 289 289 289 288 286 285 284 282 281 281 280 279 278 277 277 277 276 274 273 273 272 273 272 272 272 271 270 269 269 269 268 268 267 266 266 266 265 265 265 265 266 266 266 266 265 265 265 265 265 265 265 264 264 264 264 264 264 264 264 265 265 266
299 298 297 299 299 298 298 296 294 294 293 292 292 289 288 288 287 288 289 289 289 289 290 290 289 289 288 286 285 284 283 282 281 280 280 279 277 277 276 276 274 273 273 272 272 272 272 271 271 269 269 268 268 268 267 266 265 265 265 265 265 264 265 265 266 265 265 265 265 265 265 264 264 264 264 263 263 263 263 263 263 264 264 265 265 265
299 299 295 295 296 295 294 293 292 292 292 291 291 288 287 288 288 288 288 288 288 288 289 288 288 288 287 285 284 283 282 281 280 279 279 278 277 276 275 274 273 273 272 271 271 271 271 271 270 268 268 268 267 266 265 265 264 264 264 264 264 264 265 265 265 264 264 264 264 264 264 263 263 263 262 262 262 262 263 263 263 264 264 264 265 265
295 300 297 293 294 293 292 293 292 291 292 291 289 287 287 287 288 288 288 288 287 287 287 287 287 286 285 285 284 283 282 280 280 279 279 278 277 276 274 273 273 272 271 271 271 271 270 270 269 268 267 267 266 264 264 264 263 263 263 263 263 264 264 264 264 264 264 264 263 263 262 262 262 262 262 262 262 262 262 263 263 263 264 264 264 265
292 297 296 292 293 294 293 294 293 292 292 291 288 287 287 287 288 287 287 287 287 287 287 287 286 285 284 284 283 282 281 280 279 279 278 277 276 274 273 273 272 271 271 271 271 270 269 269 269 267 267 266 264 263 263 263 263 263 263 263 263 264 264 263 263 263 263 263 262 261 261 261 261 261 261 261 262 262 262 263 263 263 263 264 264 264
295 295 294 293 295 297 295 293 292 290 290 289 288 288 287 287 288 287 287 287 287 288 287 286 284 284 284 283 282 281 281 280 279 278 277 276 275 274 273 272 271 271 271 270 269 268 268 268 268 267 265 264 264 263 262 262 262 262 262 263 263 263 263 263 262 262 262 261 261 261 260 260 260 261 261 261 262 262 262 262 263 263 263 263 264 264
293 295 295 294 296 299 295 291 291 290 291 293 291 289 288 287 287 287 287 287 287 287 286 284 283 284 283 282 282 281 280 279 279 277 276 275 274 273 272 271 271 271 270 269 267 267 267 267 267 266 264 263 263 262 262 262 262 262 262 263 263 263 262 262 261 261 260 260 260 260 260 260 260 260 261 261 261 262 262 262 262 262 263 263 264 264
292 294 294 292 295 299 294 290 292 296 298 297 291 287 286 286 287 287 287 287 286 285 284 283 283 283 282 282 281 280 280 279 278 277 275 274 273 272 271 271 271 270 268 267 267 266 266 266 266 264 263 263 262 262 261 261 261 261 262 262 263 262 261 260 260 260 260 260 259 259 259 259 260 260 260 261 261 261 261 262 262 262 263 263 263 264
297 295 292 289 293 297 293 292 298 303 300 292 286 286 286 286 287 287 287 287 286 284 283 283 283 283 282 281 280 280 279 278 277 276 274 273 272 271 271 270 270 269 267 266 266 266 266 266 265 264 263 262 262 261 261 261 261 261 262 262 261 260 260 259 259 259 259 259 259 259 259 259 259 260 260 260 261 261 261 261 261 262 262 263 263 264
296 296 293 291 293 295 294 294 299 300 293 286 285 287 286 286 287 287 288 288 286 284 283 283 283 282 281 280 280 279 279 277 276 275 274 273 272 271 270 270 269 267 266 265 265 265 265 265 264 263 262 262 261 261 261 261 261 261 261 261 260 259 259 258 258 259 258 258 258 258 258 259 259 259 259 260 260 260 261 261 261 262 262 263 263 264
293 295 294 293 294 294 294 294 295 296 292 288 288 289 287 286 287 287 287 287 285 284 283 282 282 281 280 280 280 279 277 276 275 274 274 273 272 271 270 270 268 267 266 265 265 265 264 264 263 262 262 261 261 260 260 260 261 261 260 259 259 258 258 258 258 258 258 258 258 258 258 258 259 259 259 259 260 260 260 261 261 262 262 263 263 264
290 292 294 294 294 293 294 294 294 298 299 294 290 288 286 286 286 285 286 286 284 284 283 282 281 280 280 280 279 278 276 275 274 274 273 272 271 271 270 269 267 266 265 265 264 264 263 263 262 261 261 260 260 260 260 260 260 260 259 258 258 258 258 258 258 258 258 257 257 257 258 258 258 259 259 259 259 260 260 260 261 262 262 263 264 264
289 290 293 296 295 293 294 295 296 299 300 294 289 287 286 286 285 284 286 287 285 283 282 282 281 280 280 279 278 277 275 273 273 273 273 272 271 271 270 268 266 265 264 264 264 263 263 262 261 261 260 260 260 259 259 260 259 259 258 258 257 257 257 257 257 257 257 257 257 257 257 258 258 258 258 259 259 259 260 260 261 262 262 263 264 264
294 294 294 295 296 294 293 294 295 297 295 291 288 287 287 285 284 286 290 290 286 283 282 281 280 280 279 278 277 276 274 273 273 273 272 271 271 270 268 267 266 264 264 264 263 262 262 262 260 260 260 259 259 259 259 259 259 258 257 257 257 257 257 257 257 257 257 257 256 257 257 257 258 258 258 258 259 259 260 261 261 262 263 263 264 265
297 295 292 292 294 293 293 294 294 295 294 291 289 287 286 285 286 289 291 289 284 283 282 281 280 280 279 277 276 275 274 273 273 272 271 271 270 269 267 266 265 264 263 263 262 262 262 261 260 260 259 259 259 259 259 259 258 257 257 256 256 257 257 257 257 256 256 256 256 257 257 257 257 258 258 259 259 260 260 261 262 262 263 264 265 266
298 296 293 292 294 292 292 292 294 296 293 289 288 287 286 288 291 290 288 285 283 283 282 280 280 279 277 276 275 274 273 272 272 271 270 270 269 268 266 265 264 263 263 262 262 261 261 260 260 259 259 258 258 258 258 258 257 256 256 256 256 256 256 256 256 256 256 256 256 256 257 257 257 258 258 259 260 260 261 261 262 263 264 265 265 266
296 297 297 295 294 292 293 294 298 300 292 286 288 289 286 289 290 287 284 283 282 282 281 280 280 278 276 275 274 272 272 271 271 270 269 269 268 266 265 264 263 263 262 262 261 260 260 260 259 259 258 258 258 258 257 257 257 256 256 256 256 256 256 256 256 255 255 255 256 256 256 257 258 258 258 259 260 260 261 261 262 263 264 265 266 268
293 295 300 297 292 293 297 300 302 301 292 286 288 290 287 287 287 284 283 283 282 281 280 279 278 277 275 274 272 271 271 270 270 269 268 268 267 265 264 264 263 262 262 261 260 260 260 259 259 258 257 257 257 257 256 256 256 256 255 255 255 256 256 255 255 255 255 255 256 256 256 257 258 258 259 259 260 260 261 261 262 263 265 265 267 269
295 295 298 297 294 294 297 299 298 296 291 288 288 288 287 285 284 283 283 282 281 281 279 278 277 275 273 272 271 271 270 269 269 268 268 267 265 264 264 263 262 262 261 260 260 260 259 258 258 257 257 257 257 257 256 256 256 255 255 255 255 255 255 255 255 255 255 255 255 256 256 257 257 258 259 259 260 260 261 262 262 263 265 266 267 269
293 290 291 293 294 293 292 292 291 291 290 289 287 286 286 284 283 283 282 281 281 280 278 276 275 274 272 271 271 270 270 269 268 268 267 266 265 264 263 262 262 261 261 260 259 259 258 258 257 256 256 256 256 256 256 255 255 255 254 255 255 255 255 254 254 254 254 255 255 256 256 257 257 258 259 259 260 260 261 261 262 263 265 266 267 269
290 287 289 291 292 292 292 292 291 290 290 289 287 286 284 283 283 282 282 281 280 278 276 275 274 272 271 271 270 270 269 268 268 267 266 265 264 263 262 262 261 261 260 259 259 259 258 257 256 256 256 256 256 256 255 255 255 254 254 254 254 255 254 254 254 254 254 255 255 256 256 257 257 258 259 259 260 260 261 262 263 263 265 266 268 269
291 287 289 291 290 291 292 292 290 289 289 287 285 285 284 283 283 282 281 280 278 276 275 274 272 271 271 270 270 269 268 268 267 266 265 264 263 263 262 261 261 260 260 259 258 258 257 256 256 255 255 256 256 255 255 255 254 254 254 254 254 254 254 254 254 254 254 255 255 255 256 257 257 258 258 259 259 260 261 261 262 264 265 267 268 269
290 289 291 292 290 290 291 291 289 289 289 287 285 285 284 284 283 281 280 279 277 275 274 273 272 271 270 270 269 268 267 267 266 265 264 263 263 262 261 261 260 260 259 258 258 257 256 255 255 255 255 255 255 255 254 254 254 253 253 254 254 254 253 253 253 254 254 254 255 255 256 257 257 257 258 258 259 260 261 262 263 264 266 267 268 269
290 292 292 291 293 294 293 293 291 290 291 289 286 285 284 282 281 280 279 278 276 274 273 272 271 270 270 269 269 267 266 266 265 264 263 263 262 261 261 260 260 259 258 258 257 257 256 255 255 254 254 255 255 254 254 254 253 253 253 253 254 253 253 253 253 253 254 254 255 255 256 256 257 257 258 258 259 259 261 263 264 265 266 266 267 269
291 294 293 294 297 296 294 293 291 289 290 288 286 285 283 280 279 279 278 277 275 274 272 271 271 270 269 269 268 267 266 265 264 263 263 262 261 261 260 260 259 258 258 257 257 256 255 254 254 254 254 254 254 254 254 254 253 253 253 253 253 253 253 253 253 253 254 254 254 255 256 256 256 257 257 258 258 259 260 262 264 266 267 266 266 268
Wind_Speed
4 5 5 3 4 4 4 3 3 3 4 3 4 3 5 7 8 9 11 7 2 3 5 6 10 12 12 13 7 6 3 1 1 1 3 4 5 5 6 6 5 5 5 9 13 14 12 9 7 6 7 10 12 12 10 7 6 7 9 11 12 12 12 12 13 12 12 13 14 15 16 16 17 18 19 20 21 22 23 25 26 27 28 27 26 24
5 7 4 4 4 3 3 2 4 2 1 2 3 5 5 5 9 11 10 7 4 2 6 5 12 13 10 8 6 6 5 6 5 1 3 4 5 4 6 7 5 4 5 8 10 10 9 5 4 5 8 11 13 12 10 7 6 6 8 11 11 10 10 11 11 10 10 11 12 13 14 15 16 17 18 19 21 22 23 24 25 25 26 26 25 26
6 4 5 4 1 2 4 3 3 1 1 2 2 4 6 4 8 9 6 2 3 4 9 9 12 12 7 4 6 7 5 4 6 2 3 4 5 5 6 6 5 5 4 5 6 6 5 2 2 6 10 12 13 12 11 9 7 7 9 11 11 10 11 11 11 10 10 12 12 14 15 16 18 19 19 20 21 22 22 23 23 24 26 27 27 28
3 2 4 2 3 2 3 3 3 3 1 2 3 3 6 5 5 6 5 4 4 5 8 9 10 7 3 3 5 7 5 5 8 7 6 5 6 7 6 6 5 6 4 3 3 2 1 1 4 9 12 14 15 15 13 11 10 10 10 11 11 11 11 12 12 11 12 13 14 15 17 19 20 21 21 21 22 22 22 23 24 25 26 27 27 27
1 4 1 3 3 2 3 5 4 4 5 5 4 3 6 7 4 7 11 12 10 3 2 8 9 4 2 3 4 5 5 8 9 9 10 9 8 8 8 7 5 5 3 2 1 1 2 5 8 12 15 17 17 17 16 14 13 11 11 12 11 12 12 13 13 13 13 14 15 16 18 19 19 19 19 19 20 21 23 25 26 27 27 26 26 26
1 2 1 3 4 4 4 4 3 3 5 6 5 4 5 9 9 12 13 12 9 3 2 7 6 4 1 3 4 5 6 9 8 9 11 8 8 8 7 6 4 2 1 2 2 3 5 8 12 16 19 19 19 20 18 16 16 13 12 13 13 13 14 14 14 13 13 13 14 15 16 16 16 17 17 17 20 23 24 25 26 27 26 26 26 27
2 2 2 3 4 5 6 3 1 2 5 6 3 2 4 8 11 14 13 7 4 4 3 4 1 4 4 4 4 4 7 10 8 9 9 7 8 6 4 3 1 1 2 3 4 6 8 12 17 20 22 20 20 21 20 18 18 16 15 15 14 15 15 15 15 13 12 13 14 15 15 15 15 17 19 20 22 24 25 26 26 27 27 27 28 29
2 5 6 5 5 6 6 4 2 1 4 5 4 2 8 12 13 13 10 4 2 4 5 2 2 3 4 2 1 2 7 9 8 8 8 6 6 4 2 2 2 4 7 7 8 11 12 16 19 21 23 22 22 23 22 20 21 19 17 16 16 16 16 17 15 13 13 14 14 14 15 15 15 17 20 23 25 26 27 28 28 29 29 29 29 29
2 5 6 5 5 5 3 3 3 2 1 6 5 6 10 12 11 9 7 5 2 3 4 3 2 3 5 2 1 1 4 7 7 6 6 5 4 2 3 6 7 9 10 8 9 12 14 18 21 22 24 24 25 25 25 24 23 21 18 17 18 18 19 19 17 15 14 14 14 14 15 16 16 18 21 23 24 25 26 28 29 30 29 29 27 26
1 1 1 2 4 2 3 6 4 3 2 8 8 8 9 7 3 3 4 4 2 3 2 5 3 3 7 4 2 2 3 3 4 4 4 3 2 2 6 10 11 10 9 8 11 15 18 20 22 24 25 25 27 27 26 25 24 21 18 19 20 21 21 20 18 16 15 14 14 14 15 16 18 19 21 22 22 24 25 27 29 29 28 28 27 25
3 1 1 2 2 2 4 6 3 4 4 7 7 8 7 2 2 2 2 2 3 2 3 4 2 2 7 3 2 3 3 1 3 4 5 4 4 5 9 11 11 10 10 10 13 17 20 21 22 23 24 25 27 26 26 25 23 19 17 20 22 23 23 22 20 17 15 15 14 14 15 17 20 21 21 21 23 25 27 28 29 28 28 27 27 27
5 2 1 1 1 1 1 4 2 1 2 5 5 6 8 4 2 3 3 4 3 4 3 3 1 2 7 3 3 4 4 4 5 5 6 7 8 9 9 10 10 10 11 11 12 15 19 21 22 24 25 26 27 26 26 24 20 16 17 21 23 24 24 23 20 17 15 15 14 15 17 19 21 21 21 22 25 27 28 29 30 29 28 27 27 27
3 0 2 2 1 1 2 3 3 3 4 6 5 7 9 7 6 5 5 4 2 5 3 3 7 5 4 2 3 4 5 6 5 4 5 7 10 10 11 11 10 10 11 11 11 12 15 19 22 26 28 29 29 28 27 21 15 14 20 22 23 24 24 23 20 17 16 15 15 17 19 21 21 21 22 24 26 27 28 29 30 28 28 28 28 28
4 3 4 3 1 1 4 5 5 4 5 7 5 5 6 5 5 6 6 6 6 8 8 8 6 3 2 1 3 4 3 3 3 4 4 4 7 10 11 10 10 11 11 12 11 12 14 20 24 26 27 28 28 27 22 15 14 19 22 22 23 24 25 24 20 17 16 15 16 19 20 21 22 23 24 25 26 27 28 29 29 29 28 28 27 26
4 5 3 3 2 2 5 5 1 1 2 3 1 3 4 2 2 4 5 6 9 12 11 7 0 2 6 3 3 4 3 3 1 3 4 4 6 9 10 10 11 12 12 12 12 13 18 23 25 25 26 26 25 23 18 16 19 21 21 23 24 25 27 26 21 16 15 15 17 18 19 21 23 24 25 26 27 28 28 29 29 28 27 26 25 25
2 5 5 2 2 2 4 1 1 2 1 2 2 4 3 1 2 3 5 5 8 10 8 3 1 3 1 2 3 2 2 1 2 5 8 9 10 11 12 12 13 12 12 13 13 14 20 24 23 23 24 25 26 24 22 22 22 22 23 25 24 25 28 25 19 14 14 15 16 17 20 23 23 25 27 28 29 29 29 28 26 25 24 23 23 24
2 5 7 5 3 3 4 1 2 3 1 1 3 3 4 1 4 1 5 5 6 9 6 1 3 4 1 2 0 1 2 5 7 9 11 12 14 14 12 13 13 12 12 13 13 14 17 20 21 24 25 26 28 28 27 26 25 24 25 25 26 29 28 20 13 13 14 16 18 20 23 24 25 26 27 28 30 30 27 24 22 22 22 23 23 23
1 5 7 4 2 1 2 2 3 3 2 3 4 4 3 1 4 2 4 5 6 8 6 4 8 8 4 2 2 1 5 9 10 10 12 13 14 14 13 13 13 13 11 12 13 14 18 22 25 28 29 30 31 32 32 30 27 25 24 26 29 29 22 14 14 16 17 20 22 23 25 26 27 27 27 28 28 27 23 21 21 22 23 23 22 22
1 4 6 1 2 6 1 5 3 4 3 4 2 2 2 3 3 3 2 4 6 8 9 10 11 7 3 3 2 3 6 9 11 11 13 15 15 14 13 13 14 12 10 11 11 13 19 25 28 29 30 31 33 36 34 28 24 25 27 28 25 20 17 17 19 20 22 24 24 25 27 28 28 27 26 26 25 22 21 21 22 22 22 21 21 22
1 1 4 3 4 5 3 3 1 4 5 4 2 3 3 1 2 0 1 1 2 5 9 13 12 5 1 2 3 4 6 8 11 13 14 15 15 14 12 13 13 10 9 11 11 14 22 28 29 29 30 32 32 33 30 27 27 29 28 23 20 20 21 20 21 23 24 26 27 28 29 29 28 26 25 24 22 21 21 21 21 21 21 22 22 23
1 1 3 5 4 3 3 1 2 2 2 5 3 4 5 1 2 2 1 2 2 3 7 10 11 6 1 1 2 3 5 8 12 16 16 15 16 14 13 15 14 9 10 12 12 17 25 29 30 30 30 29 29 31 30 30 30 27 23 22 21 22 22 22 23 25 27 28 28 28 29 27 25 24 24 23 21 21 21 21 21 20 20 21 21 21
1 1 3 5 5 3 2 2 3 4 2 3 2 2 3 2 2 4 4 1 3 1 4 6 9 8 2 1 2 0 5 10 15 18 16 15 16 14 15 18 14 9 11 13 15 21 27 29 30 29 28 29 31 32 30 28 25 23 23 23 22 23 24 25 27 29 29 28 27 27 26 23 22 23 24 23 22 21 20 19 19 20 20 21 21 22
0 2 1 4 5 5 4 2 1 2 5 5 3 2 2 2 4 3 3 4 2 3 4 5 8 7 0 2 3 1 8 13 16 18 16 14 13 14 18 19 11 9 13 15 18 25 28 28 28 27 26 28 29 26 25 24 22 22 24 24 24 26 27 28 29 29 28 27 26 25 22 21 23 24 24 23 20 19 19 20 22 23 25 25 25 26
1 2 1 5 5 3 2 2 1 2 5 4 3 3 3 2 2 5 4 3 3 4 3 5 9 6 0 1 3 6 12 14 14 15 15 13 10 13 19 16 10 12 15 16 21 27 28 27 27 26 24 24 24 24 23 23 22 22 24 24 25 28 28 29 30 29 27 26 24 22 21 23 25 24 23 20 18 19 22 24 25 26 28 28 28 29
1 1 2 4 6 5 4 4 3 2 2 2 2 2 3 4 2 1 0 2 1 4 5 7 9 8 7 9 11 12 14 16 14 13 14 12 10 14 18 15 12 15 15 17 21 23 24 26 26 24 22 22 24 25 25 24 23 24 25 25 27 27 28 30 30 28 25 24 23 23 24 25 24 23 21 18 19 22 25 26 27 29 30 29 28 26
1 0 2 4 4 6 6 6 6 6 6 2 2 3 4 4 3 1 0 1 2 4 5 6 9 14 16 16 15 15 15 16 16 14 12 9 10 14 16 13 12 13 15 19 20 19 21 24 23 22 22 24 25 26 25 25 26 27 27 28 29 27 29 31 28 25 23 23 24 25 24 24 24 23 20 19 22 25 26 28 30 30 28 26 24 23
2 0 2 5 4 5 7 9 10 7 7 7 4 4 4 2 2 2 1 1 5 8 6 6 11 19 22 19 17 17 16 15 16 17 14 9 11 14 13 11 13 13 15 18 18 18 20 18 18 20 24 26 25 25 26 28 30 30 30 30 30 28 30 29 25 23 23 25 25 24 23 24 24 23 21 23 27 28 29 30 29 27 25 22 22 22
4 1 2 5 7 9 9 12 13 9 7 9 5 1 3 4 4 4 1 5 6 7 9 12 16 20 21 18 16 17 17 15 16 18 15 11 14 15 11 13 17 17 17 17 18 19 17 14 15 19 23 24 23 25 28 28 29 30 30 30 29 29 29 26 23 24 25 25 24 23 23 24 24 25 27 29 30 29 29 28 25 24 23 22 22 22
4 2 3 3 6 10 10 13 13 8 6 4 1 1 1 4 3 1 5 7 5 5 12 18 20 19 18 15 16 17 16 15 16 16 14 15 17 15 13 15 18 19 19 20 20 18 15 15 16 18 22 23 22 25 28 28 29 31 30 28 28 28 26 24 24 26 25 23 22 23 25 27 28 30 31 30 29 27 26 25 24 24 23 23 23 23
3 2 2 2 6 10 11 12 9 5 4 2 2 2 2 3 6 6 7 8 8 10 14 17 19 17 13 11 15 16 14 14 16 16 16 18 18 14 14 17 18 19 21 21 20 16 17 21 21 20 22 22 21 25 28 29 30 30 27 27 27 26 24 24 26 25 23 23 24 26 29 31 31 31 29 28 26 25 25 24 24 24 23 24 24 23
1 2 1 1 5 9 8 7 5 4 5 4 3 3 4 4 5 6 5 6 8 11 14 14 14 13 9 9 14 15 13 14 17 19 19 18 14 12 15 17 18 19 21 20 19 17 18 23 24 22 22 21 22 27 29 29 29 27 25 26 26 25 25 25 25 24 24 24 26 29 31 31 30 28 27 26 26 25 25 24 24 24 24 24 23 23
2 2 2 5 4 7 3 4 8 3 2 3 3 4 4 4 4 4 4 6 10 14 15 11 8 8 8 12 15 15 16 17 17 19 19 15 11 12 15 16 17 20 20 18 18 19 19 21 22 20 20 21 24 28 30 28 26 26 27 26 25 25 25 24 24 25 26 27 27 29 30 30 29 28 27 26 25 25 25 25 25 25 24 24 24 24
2 1 2 3 3 6 1 8 13 4 6 1 4 4 4 4 6 6 7 10 8 6 6 6 6 8 12 15 16 17 18 17 15 16 15 12 11 13 15 15 17 19 17 15 16 18 20 21 21 19 19 22 25 27 28 26 25 27 28 26 25 24 24 25 26 27 28 28 28 29 30 29 29 27 27 27 26 26 26 26 26 25 24 24 24 24
2 2 0 1 2 5 6 11 9 3 4 3 3 7 4 3 6 9 13 13 5 3 1 6 8 12 15 15 16 17 16 14 14 14 10 8 9 12 15 16 17 16 15 15 16 18 22 23 20 18 20 24 26 27 27 26 26 28 27 25 24 23 24 27 28 28 27 27 28 29 30 29 28 28 27 27 27 27 27 27 26 26 25 24 24 24
2 2 1 2 1 4 7 9 7 4 2 3 6 5 1 4 6 10 12 8 4 2 5 9 13 16 16 14 14 14 14 14 14 11 7 6 9 12 15 17 16 14 14 17 17 20 26 24 20 21 23 24 26 27 26 26 28 28 26 24 24 24 25 27 28 26 26 27 29 30 30 29 28 28 28 28 28 28 27 27 26 26 25 24 24 23
3 2 1 1 1 3 5 6 4 4 2 2 2 3 3 4 6 9 12 4 5 0 8 12 15 17 16 16 14 11 12 14 12 7 5 7 10 12 14 16 14 13 16 19 18 23 28 23 20 24 24 24 26 27 25 27 28 26 24 24 26 27 27 27 27 26 26 28 30 30 30 29 29 28 28 29 29 28 28 27 27 27 27 26 25 24
4 3 1 2 1 1 2 2 3 4 3 1 3 3 2 3 5 7 10 6 3 1 6 11 15 16 16 17 15 12 13 14 10 6 8 11 13 15 16 15 13 17 23 23 21 25 26 20 20 25 25 25 27 26 26 28 26 24 24 25 27 27 27 27 26 25 27 30 31 31 30 29 29 29 29 30 29 29 28 29 29 29 29 27 27 27
2 1 1 1 1 2 2 3 3 5 4 3 5 4 4 5 4 3 4 5 2 1 6 10 13 15 16 15 16 15 15 13 11 10 11 13 15 17 18 15 15 22 26 23 22 26 23 19 22 26 26 26 26 26 28 27 23 23 24 26 27 28 27 26 26 27 30 31 31 31 30 29 29 29 30 29 29 29 30 32 32 32 30 29 29 31
4 2 4 3 2 2 2 2 3 4 4 4 6 5 5 5 4 4 2 4 3 2 7 10 12 15 14 12 13 14 12 11 12 11 10 13 16 16 16 16 19 25 25 21 23 27 24 20 24 26 24 25 27 28 27 24 22 23 25 26 28 27 26 26 27 29 32 32 32 31 29 29 29 29 29 30 30 31 33 34 34 33 32 32 31 32
5 4 3 2 2 1 3 2 3 5 5 5 6 5 5 4 1 2 6 6 3 6 10 10 11 13 11 10 10 9 8 8 11 12 12 16 19 15 14 17 21 25 25 21 23 26 24 22 24 25 24 25 27 27 25 23 24 25 25 26 27 26 26 27 28 32 34 33 32 31 29 30 30 31 31 32 32 34 34 33 33 33 33 33 32 32
2 2 1 1 2 3 4 3 4 5 5 4 4 4 6 3 2 4 9 8 7 10 10 8 10 10 8 8 8 6 6 8 10 12 14 18 18 14 15 20 21 22 23 22 23 25 24 23 25 24 24 26 27 25 24 23 24 25 25 26 27 26 26 28 30 34 35 33 32 32 32 32 32 34 34 32 32 34 33 32 32 32 33 33 32 31
1 1 1 0 2 2 3 3 4 5 3 3 3 4 3 3 3 4 6 5 7 10 9 8 9 7 6 7 7 6 8 10 10 11 13 16 15 13 17 23 22 21 23 22 23 25 23 23 24 23 24 26 25 24 25 24 22 24 26 26 26 26 27 29 32 35 34 34 34 34 35 35 35 35 34 31 31 32 32 32 32 31 30 30 28 28
3 1 2 2 2 0 1 1 3 5 3 4 3 2 0 1 3 4 3 3 5 6 7 7 7 5 6 8 8 8 10 11 10 11 12 14 14 15 18 21 21 21 23 22 24 25 23 24 24 22 25 27 23 22 26 24 20 23 27 27 26 27 28 31 34 35 35 36 37 36 36 36 35 34 31 30 31 31 31 31 31 30 29 26 25 26
4 4 2 3 2 1 2 2 3 2 3 4 1 2 2 2 1 2 2 4 4 3 4 5 5 5 5 7 9 10 10 10 11 11 12 12 14 16 19 21 20 21 21 22 24 24 23 23 24 23 25 26 22 22 26 23 20 25 28 27 27 28 30 32 35 36 37 37 36 36 35 34 34 32 30 30 31 30 30 30 29 29 28 25 23 23
5 5 4 3 4 3 4 7 6 5 3 2 3 3 4 3 3 3 3 4 4 3 2 3 5 5 5 6 8 8 8 9 11 11 10 11 14 16 18 20 20 20 21 22 23 23 22 23 24 25 26 26 22 22 25 23 22 27 29 28 28 28 30 34 37 36 36 36 35 35 35 33 32 31 30 30 30 29 29 29 28 29 28 26 26 24
4 3 3 2 3 4 7 9 8 7 6 3 3 3 3 4 4 4 3 3 4 3 1 2 4 5 5 6 7 7 7 9 10 10 10 11 14 16 17 19 20 20 21 22 22 21 22 23 24 24 26 25 22 22 24 22 23 27 29 28 27 28 31 35 36 35 35 35 35 34 34 33 32 31 31 31 30 28 27 26 25 27 27 27 27 24
2 2 3 2 2 3 5 5 5 5 5 4 3 3 3 4 4 3 2 3 3 2 1 1 3 5 6 5 5 7 9 9 9 9 8 9 13 16 17 17 18 19 20 21 21 21 21 23 24 24 26 24 21 23 24 22 23 27 29 27 26 29 32 35 34 34 34 34 34 33 32 31 31 31 32 32 31 30 29 26 24 25 25 25 25 23
1 3 3 4 4 4 6 7 5 5 6 4 4 4 4 4 4 3 3 3 3 2 3 3 3 4 5 4 5 6 9 9 8 8 7 9 12 16 16 16 17 19 20 20 20 20 21 23 24 24 25 23 22 24 25 22 24 29 29 27 27 30 33 34 33 33 33 33 32 31 30 29 29 30 31 31 31 30 29 27 26 25 23 22 22 22
4 3 3 3 4 6 9 9 6 6 6 4 4 5 4 4 4 3 3 4 3 2 3 5 4 3 4 5 5 6 8 8 8 8 9 11 13 15 16 17 18 19 20 20 20 20 22 25 25 25 25 23 22 25 25 23 26 31 29 26 27 31 33 35 34 32 32 32 31 30 29 28 28 29 30 31 32 32 30 26 24 22 21 20 19 20
4 4 3 2 2 6 7 5 2 2 6 5 4 6 5 4 4 4 3 3 3 2 3 4 5 5 6 6 6 6 7 7 8 10 11 12 14 15 17 18 19 19 19 19 19 19 22 25 24 25 24 22 23 26 26 25 29 32 29 26 28 31 33 34 33 32 31 31 30 29 28 28 28 28 28 29 30 33 33 29 24 19 17 20 21 20
6 6 6 6 5 7 7 5 5 3 5 5 3 5 5 6 5 4 4 4 3 4 4 3 3 5 6 6 7 7 6 6 9 12 12 13 15 16 16 17 18 19 19 19 18 19 22 24 24 24 23 22 24 26 25 26 29 31 28 27 29 31 33 33 31 30 30 30 29 28 27 27 27 28 28 28 28 29 29 30 28 23 18 19 22 21
Wind_Direction
57 55 35 334 287 286 271 205 170 176 182 238 272 260 268 278 286 280 274 282 45 311 265 231 268 285 299 308 346 359 344 68 345 141 142 156 151 144 128 125 128 118 118 119 111 109 107 99 86 58 26 11 5 4 4 2 356 358 360 352 347 344 342 340 341 342 341 341 339 336 334 329 326 324 323 320 319 318 315 313 311 309 307 304 301 298
60 59 6 281 243 261 292 172 141 119 159 259 271 294 295 266 280 281 275 297 30 344 287 298 305 301 306 324 5 359 1 23 346 276 153 146 136 122 120 122 119 102 96 102 99 107 115 106 72 26 2 354 350 349 345 336 325 325 335 336 330 327 327 330 335 332 330 333 331 328 324 321 319 319 319 316 317 316 313 312 310 308 306 300 296 294
44 49 319 302 159 84 39 81 112 82 217 261 282 316 310 302 303 289 257 272 45 331 308 329 319 307 324 15 38 15 9 8 342 351 126 133 118 105 112 113 100 82 75 76 78 105 132 129 22 343 336 335 331 330 325 310 293 296 315 320 313 313 317 323 328 324 323 326 326 323 319 318 316 316 315 312 313 313 310 308 306 304 300 294 291 291
39 334 306 11 95 94 22 26 52 28 353 293 314 323 299 316 339 310 287 297 317 297 298 320 313 307 1 65 55 24 16 18 12 34 59 73 91 95 92 86 81 78 75 72 70 95 138 276 308 316 317 317 315 312 308 292 275 282 303 308 303 304 309 314 318 317 318 320 320 319 316 316 314 312 312 311 310 311 309 307 305 303 299 294 291 290
7 280 258 68 62 68 347 353 42 21 342 309 285 261 284 311 310 277 294 310 316 313 329 337 324 316 43 47 25 12 22 31 26 41 51 54 67 74 72 66 69 83 92 108 105 328 297 281 292 303 305 304 302 297 293 281 266 270 291 297 294 296 301 306 309 311 313 314 314 315 315 314 312 309 309 309 309 310 310 308 307 304 301 297 292 291
333 264 146 39 3 38 29 358 31 22 344 319 283 227 264 303 296 283 301 322 328 329 32 14 348 301 332 46 23 359 30 39 32 45 53 54 59 64 70 67 68 87 118 189 197 268 275 281 291 295 296 295 291 288 285 275 260 261 282 289 288 291 293 296 300 302 303 304 306 309 310 310 309 307 307 307 309 310 310 308 306 305 302 297 292 291
346 348 77 46 352 25 42 20 333 32 4 327 272 210 276 293 292 294 308 326 323 295 318 32 70 263 310 12 13 16 53 51 43 50 52 50 55 60 63 61 85 12 332 286 290 297 285 285 289 288 290 290 286 285 284 272 256 256 274 283 283 284 284 286 289 290 293 295 298 301 302 301 300 302 304 307 309 309 309 307 306 304 301 297 293 291
327 350 15 32 29 33 33 2 289 111 9 303 245 317 309 298 293 296 305 293 256 299 322 20 138 246 293 325 329 45 69 60 51 48 48 50 53 61 57 8 307 324 334 318 310 308 292 286 286 285 287 287 286 286 282 270 257 256 268 278 282 282 282 284 284 284 288 289 291 295 296 294 295 300 304 308 310 309 308 307 305 302 299 295 293 290
304 0 0 11 32 36 12 304 263 158 337 276 280 311 292 283 287 291 298 280 269 351 335 335 29 298 288 291 323 22 77 69 59 49 44 45 32 31 6 340 327 323 325 311 300 301 294 292 291 288 287 287 287 286 282 272 260 256 264 277 284 285 285 285 282 280 283 285 288 293 296 296 298 302 304 305 306 305 305 304 302 301 298 295 293 290
312 346 259 90 58 16 283 270 256 173 240 282 300 304 281 268 283 307 301 285 316 54 301 298 18 347 304 320 13 359 57 68 71 70 46 32 0 342 343 338 330 321 315 305 298 298 295 294 294 294 292 289 289 288 284 275 260 254 266 283 287 287 288 286 280 277 282 288 290 293 297 299 300 302 302 302 301 301 303 302 301 300 297 295 293 291
336 299 220 104 107 230 265 280 263 178 239 307 320 316 311 301 95 60 351 345 8 12 265 262 96 23 308 315 70 343 348 94 101 70 27 359 343 338 337 334 328 321 315 310 307 304 303 302 301 302 299 297 297 295 289 279 261 254 274 292 291 288 289 285 278 277 283 290 290 293 299 301 302 304 303 303 303 303 303 303 302 300 297 294 293 292
359 27 331 339 239 217 287 291 316 148 303 342 340 335 345 348 29 16 3 41 13 305 264 228 216 308 299 301 75 13 19 84 92 61 24 358 345 339 334 328 323 318 313 311 311 312 314 315 317 317 315 312 310 305 298 283 262 263 291 300 294 291 292 287 279 278 286 291 293 298 305 306 306 306 304 305 304 304 304 303 302 300 297 295 293 293
6 34 316 321 289 357 349 308 337 13 6 6 4 8 10 355 350 345 339 9 301 267 271 297 303 302 277 267 88 67 64 85 95 81 37 356 343 340 332 323 319 316 315 316 319 322 324 325 325 324 324 323 321 316 309 291 274 295 310 307 299 298 301 294 282 281 288 292 298 305 309 309 308 307 305 305 303 303 303 302 301 299 297 295 293 292
337 308 336 5 320 352 42 17 350 342 359 6 12 31 28 2 339 319 315 328 303 290 309 321 305 284 300 340 118 122 126 125 107 75 40 338 328 331 325 318 318 322 325 327 329 329 328 328 330 332 333 332 328 326 322 308 309 317 313 310 306 304 306 298 283 283 290 294 303 309 310 310 310 309 306 304 302 302 302 301 299 296 295 293 291 290
359 326 336 27 332 341 48 45 323 264 346 337 165 110 62 33 306 283 292 312 309 302 312 334 332 252 315 337 139 150 178 180 115 34 4 318 313 325 326 326 328 331 335 335 332 330 335 341 343 343 339 335 333 333 330 319 317 315 311 312 308 306 309 300 286 288 297 302 309 312 312 312 311 309 306 303 301 301 300 299 297 294 293 291 289 289
24 276 270 311 310 11 50 18 219 109 31 258 147 89 11 313 192 230 243 254 291 299 301 332 146 230 287 82 117 163 220 249 6 353 351 344 338 340 340 337 337 338 338 336 335 342 349 349 345 337 333 332 331 328 321 315 313 312 311 313 312 313 312 300 292 303 313 318 322 320 317 315 312 308 304 302 301 301 300 297 295 293 293 293 291 291
6 276 290 337 352 79 88 315 323 42 355 300 44 11 307 257 143 237 282 271 305 309 292 304 315 300 74 94 58 241 321 353 354 347 348 345 341 342 340 339 340 338 335 341 348 352 348 341 335 333 331 330 327 323 316 312 312 314 316 319 320 318 313 306 316 335 338 337 331 323 319 314 310 306 303 302 301 301 299 296 294 295 295 296 294 293
281 283 301 353 342 288 126 92 33 13 21 51 9 320 296 53 107 88 316 310 322 309 289 321 327 323 342 334 277 327 353 349 342 342 344 339 340 341 339 340 338 333 339 351 354 347 342 339 337 334 331 329 327 323 316 311 314 322 326 324 320 318 322 341 359 355 346 338 330 322 317 312 309 307 304 303 302 300 299 297 298 297 296 296 294 294
149 292 306 357 271 289 29 86 27 335 16 68 24 317 13 355 353 29 334 301 325 317 303 315 321 317 311 307 315 342 345 340 336 340 342 340 342 341 337 337 336 340 352 353 348 345 343 339 334 330 329 328 326 323 321 322 327 331 326 321 324 335 354 4 358 348 340 333 326 319 315 312 310 309 308 306 303 301 300 300 301 299 297 299 299 298
130 318 298 279 272 307 5 60 358 318 345 20 34 16 24 281 250 305 233 238 339 319 305 311 319 324 243 276 326 346 342 340 340 341 341 341 343 340 338 339 341 352 356 346 346 345 339 334 330 328 328 327 329 332 334 336 333 329 328 337 355 4 1 354 348 342 336 330 324 319 316 314 313 313 313 309 306 305 304 303 304 302 301 302 301 299
13 112 261 284 310 345 0 34 142 170 341 5 20 3 354 334 213 242 247 118 98 309 308 310 311 318 336 252 317 350 345 344 345 344 343 342 341 341 344 343 343 350 349 346 347 341 335 332 329 328 329 332 337 337 336 334 335 341 354 5 7 1 353 348 342 337 330 326 323 320 318 317 318 319 317 313 310 308 305 304 304 304 305 306 306 307
346 140 243 298 332 333 286 228 186 184 137 63 57 29 13 6 14 350 324 354 127 269 294 290 294 305 337 132 171 225 338 349 351 347 344 339 338 345 347 341 339 346 348 346 344 338 334 331 329 331 336 342 341 338 340 348 356 5 8 2 356 352 348 343 336 331 327 325 324 322 320 320 323 323 319 316 311 309 309 312 315 318 319 317 317 317
140 110 246 277 270 272 281 297 280 158 114 96 87 92 103 86 75 70 305 304 321 285 269 257 282 298 339 165 184 341 346 353 353 345 339 334 338 349 344 336 338 347 345 344 341 336 332 331 334 339 348 353 353 355 4 7 6 3 357 352 349 345 341 338 334 330 328 326 324 323 323 325 326 324 319 315 313 320 330 333 332 329 325 320 316 312
93 84 334 279 268 275 316 339 336 116 101 81 51 64 103 93 112 171 208 319 324 286 299 295 287 291 95 270 318 352 350 350 348 340 335 332 341 350 339 332 342 347 343 344 340 335 333 335 340 348 359 6 5 6 5 359 355 353 350 348 343 338 337 336 333 328 327 326 325 326 329 329 326 322 318 320 329 338 340 335 330 326 321 316 311 308
335 4 4 343 338 340 344 339 318 309 11 52 79 65 85 79 40 221 155 28 265 252 307 309 290 293 318 328 338 349 346 342 340 336 335 335 345 345 334 332 343 345 344 343 336 334 336 339 343 355 6 7 1 355 350 349 351 348 344 342 338 335 333 333 330 327 327 328 329 331 330 328 326 323 325 334 342 338 333 329 326 322 317 312 307 305
308 71 82 67 5 325 314 308 302 310 329 351 94 50 37 68 71 62 56 336 277 284 294 278 280 298 313 327 339 345 343 337 336 337 337 341 345 338 331 334 342 344 343 340 335 335 339 343 353 4 4 356 352 350 347 347 347 342 339 337 334 331 330 329 327 327 330 333 333 331 329 329 328 326 330 340 338 331 327 325 320 316 313 309 306 304
92 109 153 149 184 246 256 266 283 307 313 304 331 12 352 7 72 60 33 298 295 297 282 265 290 305 315 329 338 340 340 337 335 337 336 338 339 333 331 338 341 343 342 338 336 337 342 352 4 4 355 348 347 348 347 346 341 337 334 332 331 331 328 326 328 333 336 334 331 329 330 331 330 328 332 334 329 324 321 318 315 313 311 310 308 305
82 316 241 182 211 239 249 264 282 298 289 285 300 340 308 331 29 42 308 268 290 309 306 307 313 312 315 328 337 336 338 336 333 334 335 337 336 334 338 344 341 341 341 338 338 341 347 356 360 356 349 345 347 348 345 341 338 335 332 329 331 330 327 329 337 341 338 333 331 333 334 334 333 331 329 327 323 319 317 316 315 314 312 311 309 306
106 264 237 200 246 259 262 268 274 277 271 267 240 177 299 331 339 247 246 261 280 294 293 303 314 313 312 325 335 334 335 331 327 330 337 337 335 336 344 344 340 339 340 339 340 346 351 347 346 350 347 344 349 350 344 339 336 334 331 331 331 330 332 340 344 340 336 335 336 338 336 334 332 328 324 322 321 320 318 317 316 314 312 311 308 305
135 254 235 225 281 276 266 268 268 255 245 213 163 242 266 269 262 251 251 258 250 249 271 295 309 308 310 325 328 326 329 326 325 333 340 336 333 340 346 341 337 338 338 338 341 348 350 340 336 342 345 346 350 348 342 338 335 333 333 333 332 333 339 344 341 337 338 340 340 338 335 331 328 325 323 322 322 321 319 318 317 315 313 311 308 305
14 311 293 86 316 291 269 276 279 237 231 211 188 258 273 266 266 260 259 268 268 273 287 304 307 300 308 324 319 321 329 329 331 336 336 332 335 345 343 337 336 336 336 339 344 347 346 339 335 339 348 351 349 345 341 336 335 335 335 334 334 337 341 342 340 342 342 340 338 335 331 328 326 326 325 323 322 321 321 320 318 316 313 311 308 306
37 339 352 60 346 285 252 319 315 325 108 161 209 269 290 296 286 256 248 283 301 305 308 314 306 297 313 323 321 328 331 330 334 334 330 330 343 347 339 335 335 334 336 344 348 343 339 338 338 343 350 349 344 343 341 337 336 337 335 334 336 339 342 344 345 345 341 335 332 331 329 328 327 327 325 324 323 322 321 319 317 315 312 310 308 306
101 54 338 54 322 274 304 332 312 348 76 78 241 227 220 256 289 288 294 301 303 313 314 303 289 302 321 327 327 330 330 330 334 332 326 333 345 343 336 333 333 335 341 348 347 342 338 338 341 348 349 344 340 341 341 338 336 335 333 333 336 341 347 349 345 340 335 331 330 330 329 328 328 327 325 324 323 321 319 318 315 313 311 309 307 305
100 91 206 128 277 285 317 323 312 22 37 314 197 165 184 290 306 298 303 303 284 150 241 281 298 318 328 330 326 324 326 330 331 326 327 344 346 338 337 336 336 342 349 346 341 343 341 339 345 351 347 342 339 338 338 338 336 333 331 334 341 347 350 346 341 337 333 332 332 330 329 329 328 326 324 323 322 320 318 316 314 312 311 308 306 304
102 91 136 147 204 281 321 345 354 8 338 227 174 166 268 306 262 261 280 276 200 163 315 315 323 327 327 325 322 321 325 328 324 320 330 359 354 344 340 338 341 350 351 342 340 343 340 340 347 348 343 342 341 338 336 337 337 334 335 344 350 349 346 342 338 336 334 333 332 330 330 329 328 326 324 323 321 319 316 315 314 312 311 308 306 303
151 142 130 153 204 299 352 20 358 301 262 160 219 266 302 307 288 302 314 304 158 109 336 333 327 323 324 323 322 325 326 322 317 317 347 5 3 353 343 340 347 353 345 337 339 340 338 340 347 345 341 341 341 339 337 336 337 338 342 351 351 345 342 339 336 335 335 334 332 331 330 329 327 325 324 322 320 318 316 315 313 313 312 310 307 305
141 133 48 337 323 6 334 262 242 289 336 10 274 264 238 285 308 323 318 305 179 147 342 334 323 323 326 325 327 333 329 323 319 334 360 3 359 352 345 344 352 348 338 333 336 337 336 341 347 344 342 340 338 339 337 336 340 345 347 349 346 341 339 338 336 336 336 333 331 330 329 328 326 325 323 322 320 317 316 315 314 315 316 313 310 311
85 144 121 355 340 75 9 310 311 329 326 254 240 235 214 242 240 201 262 285 219 189 342 334 325 327 330 329 333 337 335 333 329 333 351 358 353 347 344 345 350 345 335 332 337 338 337 344 347 342 340 339 339 339 337 337 346 351 348 345 343 340 338 337 337 338 335 333 331 329 328 326 325 324 322 320 318 315 316 318 318 319 321 318 314 314
33 23 104 89 356 62 72 332 287 279 275 223 224 246 255 255 223 172 217 268 226 270 345 344 332 331 332 333 338 340 339 336 324 323 344 351 343 343 344 342 344 340 334 334 342 338 333 339 344 341 341 341 339 338 337 341 351 351 347 344 341 337 337 337 338 338 334 331 330 327 326 326 324 323 322 319 318 319 320 322 323 323 324 322 319 319
26 9 50 55 303 194 152 223 247 248 255 224 208 245 284 276 163 24 326 314 325 348 351 347 332 328 332 336 339 340 336 321 310 316 336 337 332 339 346 341 338 336 332 334 342 338 332 336 341 341 343 343 339 337 339 346 352 349 344 342 338 336 337 337 336 335 332 330 329 327 326 325 324 325 325 322 323 326 326 325 324 325 326 326 325 325
0 349 12 174 227 201 183 224 266 260 252 242 237 273 289 273 99 2 320 315 340 342 340 337 328 326 334 337 331 321 306 296 298 312 326 329 328 335 342 337 334 332 331 332 337 336 333 336 338 338 341 341 337 338 342 346 349 346 343 341 338 336 337 335 334 333 331 329 329 328 328 329 329 330 330 329 329 329 328 328 328 328 330 330 330 329
299 318 329 188 209 212 188 206 273 280 242 210 244 265 290 328 337 316 303 310 326 325 326 328 323 325 335 327 313 299 297 299 306 315 322 326 328 331 335 334 332 331 331 332 336 336 334 335 336 337 339 339 337 341 344 342 344 346 343 340 338 336 336 335 334 332 331 331 331 331 332 333 335 336 335 334 335 332 329 332 334 334 334 333 332 331
183 187 292 263 208 270 352 329 313 304 241 200 249 278 97 357 302 282 298 311 297 301 317 320 316 330 337 319 306 303 305 309 317 322 322 326 329 330 331 332 331 330 332 334 336 337 337 336 335 336 339 337 336 343 345 341 341 346 344 339 338 337 335 335 334 332 332 333 334 334 336 336 338 339 338 337 338 335 332 335 337 338 339 337 334 335
194 171 239 260 202 105 341 259 241 265 219 183 220 296 235 204 192 190 259 292 291 305 321 311 311 333 333 312 306 308 311 316 322 323 324 328 331 330 328 329 331 331 332 334 335 336 338 337 335 335 337 336 337 344 345 341 340 343 342 338 337 337 336 336 335 334 334 335 335 336 337 338 339 341 340 340 340 338 336 337 339 340 341 340 339 339
213 186 195 234 215 194 224 234 243 284 300 166 158 208 214 197 180 188 229 280 301 313 316 306 315 327 324 309 305 307 314 320 321 323 326 327 327 326 325 326 329 330 332 334 334 335 338 337 334 333 334 335 338 343 343 342 342 341 339 337 338 338 337 336 336 336 336 335 336 338 339 339 341 342 342 342 343 340 338 339 340 340 341 342 343 342
228 169 149 197 251 271 266 253 254 276 286 248 190 197 183 179 202 213 226 271 290 294 323 334 318 315 314 311 309 313 319 320 318 320 325 323 320 320 322 324 327 330 333 334 333 335 338 337 333 333 333 333 338 342 342 342 343 341 338 337 338 338 337 337 337 336 336 336 337 339 341 341 342 343 343 344 345 343 341 340 338 339 341 342 342 340
266 153 158 201 256 307 285 246 215 225 243 225 197 197 186 186 198 192 199 254 273 276 297 326 311 302 305 311 315 314 313 315 317 317 322 321 317 319 322 322 325 330 333 333 332 334 338 337 334 333 333 333 337 342 341 340 342 342 339 338 339 339 339 339 339 336 336 337 338 340 342 342 341 341 342 344 346 345 344 344 343 341 339 339 338 337
180 155 198 215 204 226 257 255 246 253 255 232 193 193 197 200 198 180 192 234 249 264 290 307 309 299 302 315 322 311 307 312 319 318 318 318 316 317 320 320 323 329 332 332 332 334 338 337 333 332 332 332 335 340 339 338 341 343 341 340 340 341 341 341 340 337 337 338 339 340 342 342 341 341 341 342 344 344 343 344 343 339 336 336 337 334
126 154 198 206 219 255 270 275 287 295 283 242 185 190 196 188 187 191 207 221 219 246 290 297 299 306 314 316 314 309 304 307 317 319 317 317 317 316 318 321 324 328 330 331 332 334 337 335 332 332 331 331 334 338 338 338 341 343 344 342 341 343 342 341 340 339 339 339 340 341 342 342 342 342 342 342 344 345 344 344 341 334 332 338 341 336
144 190 195 161 249 267 264 245 214 287 289 266 201 194 196 175 170 191 209 213 219 240 264 281 301 321 321 307 302 307 300 301 318 323 316 314 316 316 317 322 324 326 329 331 331 333 335 334 332 331 331 331 335 337 336 336 340 343 345 343 343 344 344 342 341 340 339 340 340 340 341 341 341 343 343 343 344 345 346 350 351 347 339 340 343 344
191 198 175 173 225 253 246 205 167 181 273 267 198 178 183 170 168 194 206 201 217 234 231 237 288 317 313 299 296 302 294 294 315 321 313 310 312 313 316 322 324 325 328 331 332 333 334 333 332 331 330 331 334 336 335 335 339 343 345 344 344 345 345 343 341 339 337 338 339 339 339 340 340 342 343 344 345 345 343 345 350 357 358 353 352 352